TimeCST,TemperatureF,Dew PointF,Humidity,Sea Level PressureIn,VisibilityMPH,Wind Direction,Wind SpeedMPH,Gust SpeedMPH,PrecipitationIn,Events,Conditions,WindDirDegrees,DateUTC
12:14 AM,55.4,55.4,100,29.82,10.0,North,4.6,-,N/A,,Mostly Cloudy,360,2011-11-08 06:14:00
12:20 AM,55.4,55.4,100,29.82,10.0,North,5.8,-,N/A,,Mostly Cloudy,350,2011-11-08 06:20:00
12:24 AM,55.4,55.4,100,29.81,10.0,WNW,5.8,-,N/A,,Light Drizzle,300,2011-11-08 06:24:00
12:46 AM,55.4,55.4,100,29.78,10.0,NNE,10.4,-,N/A,,Overcast,30,2011-11-08 06:46:00
12:55 AM,54.5,54.5,100,29.80,10.0,NNE,6.9,-,0.00,Thunderstorm,Overcast,30,2011-11-08 06:55:00
1:03 AM,55.4,55.4,100,29.85,10.0,NW,12.7,-,N/A,Rain-Thunderstorm,Light Rain,310,2011-11-08 07:03:00
1:09 AM,53.6,53.6,100,29.86,8.0,NNW,13.8,-,N/A,Rain-Thunderstorm,Light Thunderstorms and Rain,330,2011-11-08 07:09:00
1:14 AM,53.6,53.6,100,29.84,7.0,NNW,13.8,-,N/A,Rain-Thunderstorm,Thunderstorms and Rain,340,2011-11-08 07:14:00
1:16 AM,53.6,53.6,100,29.83,6.0,NNW,13.8,-,N/A,Rain-Thunderstorm,Heavy Thunderstorms and Rain,340,2011-11-08 07:16:00
1:26 AM,53.6,53.6,100,29.82,7.0,North,19.6,-,N/A,Rain,Heavy Rain,350,2011-11-08 07:26:00
1:34 AM,53.6,53.6,100,29.79,9.0,North,18.4,-,N/A,Rain,Light Rain,360,2011-11-08 07:34:00
1:39 AM,53.6,53.6,100,29.79,10.0,North,19.6,-,N/A,Rain,Light Rain,10,2011-11-08 07:39:00
1:55 AM,52.9,52.9,100,29.79,10.0,North,15.0,-,0.11,Rain,Rain,10,2011-11-08 07:55:00
2:02 AM,53.6,53.6,100,29.82,9.0,NNW,11.5,-,N/A,Rain-Thunderstorm,Rain,330,2011-11-08 08:02:00
2:08 AM,53.6,53.6,100,29.84,9.0,NW,9.2,-,N/A,Rain-Thunderstorm,Thunderstorms and Rain,320,2011-11-08 08:08:00
2:15 AM,51.8,51.8,100,29.84,8.0,NNW,11.5,-,N/A,Rain-Thunderstorm,Thunderstorms and Rain,340,2011-11-08 08:15:00
2:19 AM,51.8,51.8,100,29.84,7.0,NNW,13.8,-,N/A,Rain-Thunderstorm,Heavy Thunderstorms and Rain,340,2011-11-08 08:19:00
2:25 AM,51.8,51.8,100,29.83,8.0,North,13.8,-,N/A,Rain-Thunderstorm,Heavy Thunderstorms and Rain,360,2011-11-08 08:25:00
2:29 AM,51.8,51.8,100,29.82,9.0,North,15.0,-,N/A,Rain-Thunderstorm,Heavy Rain,360,2011-11-08 08:29:00
2:46 AM,51.8,51.8,100,29.83,7.0,ENE,10.4,-,N/A,Rain,Rain,60,2011-11-08 08:46:00
2:55 AM,52.0,52.0,100,29.83,7.0,NE,11.5,-,0.13,Rain,Heavy Rain,50,2011-11-08 08:55:00
3:03 AM,51.8,51.8,100,29.78,6.0,NE,17.3,23.0,N/A,Rain,Heavy Rain,40,2011-11-08 09:03:00
3:08 AM,51.8,51.8,100,29.77,7.0,NE,19.6,23.0,N/A,Rain,Rain,50,2011-11-08 09:08:00
3:22 AM,51.8,51.8,100,29.81,10.0,NE,15.0,-,N/A,Rain,Light Rain,40,2011-11-08 09:22:00
3:55 AM,51.1,51.1,100,29.82,10.0,North,12.7,-,0.09,Rain,Light Rain,350,2011-11-08 09:55:00
4:18 AM,50.0,50.0,100,29.81,10.0,North,16.1,-,N/A,Rain,Light Rain,10,2011-11-08 10:18:00
4:24 AM,50.0,50.0,100,29.81,10.0,North,17.3,-,N/A,,Overcast,10,2011-11-08 10:24:00
4:55 AM,50.0,49.8,99,29.80,10.0,NNE,15.0,-,0.03,,Mostly Cloudy,20,2011-11-08 10:55:00
5:55 AM,49.1,48.9,99,29.83,10.0,North,15.0,-,N/A,,Overcast,350,2011-11-08 11:55:00
6:02 AM,50.0,50.0,100,29.83,10.0,NNW,12.7,-,N/A,,Overcast,340,2011-11-08 12:02:00
6:55 AM,48.9,48.2,97,29.86,10.0,North,11.5,-,N/A,,Overcast,350,2011-11-08 12:55:00
6:58 AM,48.2,48.2,100,29.86,10.0,North,9.2,-,N/A,,Overcast,350,2011-11-08 12:58:00
7:55 AM,48.7,48.6,99,29.88,10.0,North,10.4,-,N/A,,Overcast,360,2011-11-08 13:55:00
7:57 AM,48.2,48.2,100,29.88,10.0,North,9.2,-,N/A,,Overcast,360,2011-11-08 13:57:00
8:43 AM,48.2,48.2,100,29.86,10.0,NE,15.0,-,N/A,,Overcast,40,2011-11-08 14:43:00
8:55 AM,48.9,48.7,99,29.87,10.0,NE,13.8,-,N/A,,Overcast,40,2011-11-08 14:55:00
8:57 AM,48.2,48.2,100,29.86,10.0,NNE,13.8,-,N/A,,Overcast,30,2011-11-08 14:57:00
9:09 AM,48.2,48.2,100,29.87,10.0,NE,13.8,-,N/A,,Overcast,40,2011-11-08 15:09:00
9:55 AM,48.9,48.2,97,29.92,10.0,WNW,10.4,-,N/A,,Overcast,300,2011-11-08 15:55:00
10:27 AM,48.2,48.2,100,29.93,10.0,NW,11.5,-,N/A,,Overcast,320,2011-11-08 16:27:00
10:55 AM,49.3,47.3,93,29.93,10.0,NW,10.4,-,N/A,,Overcast,310,2011-11-08 16:55:00
11:09 AM,48.2,48.2,100,29.94,10.0,WNW,11.5,-,N/A,,Light Drizzle,290,2011-11-08 17:09:00
11:18 AM,48.2,48.2,100,29.94,10.0,WNW,12.7,-,N/A,,Overcast,300,2011-11-08 17:18:00
11:22 AM,48.2,48.2,100,29.94,9.0,WNW,12.7,-,N/A,,Light Drizzle,290,2011-11-08 17:22:00
11:25 AM,48.2,48.2,100,29.94,9.0,West,12.7,-,N/A,,Light Drizzle,280,2011-11-08 17:25:00
11:31 AM,48.2,48.2,100,29.94,9.0,West,12.7,-,N/A,,Overcast,280,2011-11-08 17:31:00
11:42 AM,50.0,48.2,94,29.94,10.0,WNW,9.2,-,N/A,,Overcast,290,2011-11-08 17:42:00
11:55 AM,49.5,48.9,98,29.94,10.0,WNW,12.7,-,0.00,,Overcast,290,2011-11-08 17:55:00
12:01 PM,50.0,50.0,100,29.94,10.0,NW,9.2,-,N/A,,Overcast,310,2011-11-08 18:01:00
12:10 PM,51.8,48.2,88,29.93,10.0,NW,9.2,-,N/A,,Overcast,320,2011-11-08 18:10:00
12:21 PM,51.8,48.2,88,29.92,10.0,NW,10.4,-,N/A,,Overcast,320,2011-11-08 18:21:00
12:55 PM,53.1,47.7,82,29.92,10.0,WNW,10.4,-,N/A,,Mostly Cloudy,300,2011-11-08 18:55:00
1:06 PM,53.6,48.2,82,29.91,10.0,WNW,11.5,-,N/A,,Mostly Cloudy,290,2011-11-08 19:06:00
1:55 PM,54.9,48.4,79,29.92,10.0,NW,15.0,-,N/A,,Mostly Cloudy,310,2011-11-08 19:55:00
1:58 PM,55.4,48.2,77,29.93,10.0,WNW,15.0,-,N/A,,Mostly Cloudy,290,2011-11-08 19:58:00
2:01 PM,55.4,48.2,77,29.92,10.0,WNW,15.0,-,N/A,,Mostly Cloudy,290,2011-11-08 20:01:00
2:04 PM,55.4,48.2,77,29.92,10.0,WNW,13.8,-,N/A,,Mostly Cloudy,290,2011-11-08 20:04:00
2:08 PM,55.4,46.4,72,29.92,10.0,WNW,15.0,-,N/A,,Mostly Cloudy,290,2011-11-08 20:08:00
2:11 PM,55.4,46.4,72,29.92,10.0,WNW,13.8,-,N/A,,Scattered Clouds,290,2011-11-08 20:11:00
2:31 PM,55.4,46.4,72,29.92,10.0,NW,12.7,-,N/A,,Mostly Cloudy,320,2011-11-08 20:31:00
2:38 PM,57.2,48.2,72,29.92,10.0,NNW,13.8,-,N/A,,Mostly Cloudy,330,2011-11-08 20:38:00
2:43 PM,57.2,48.2,72,29.92,10.0,NW,9.2,-,N/A,,Mostly Cloudy,320,2011-11-08 20:43:00
2:55 PM,57.2,47.7,70,29.91,10.0,NNW,12.7,-,N/A,,Mostly Cloudy,330,2011-11-08 20:55:00
2:59 PM,57.2,48.2,72,29.92,10.0,NW,16.1,-,N/A,,Mostly Cloudy,310,2011-11-08 20:59:00
3:21 PM,55.4,46.4,72,29.93,10.0,NW,13.8,-,N/A,,Scattered Clouds,310,2011-11-08 21:21:00
3:55 PM,55.6,45.9,70,29.95,10.0,NNW,23.0,-,N/A,,Scattered Clouds,330,2011-11-08 21:55:00
4:01 PM,55.4,44.6,67,29.96,10.0,NW,23.0,31.1,N/A,,Mostly Cloudy,320,2011-11-08 22:01:00
4:09 PM,55.4,44.6,67,29.96,10.0,NW,18.4,26.5,N/A,,Scattered Clouds,320,2011-11-08 22:09:00
4:55 PM,53.6,44.4,71,29.98,10.0,NNW,16.1,-,N/A,,Clear,340,2011-11-08 22:55:00
5:55 PM,51.6,41.7,69,30.03,10.0,NW,18.4,-,N/A,,Partly Cloudy,320,2011-11-08 23:55:00
6:55 PM,49.3,40.8,73,30.08,10.0,NW,18.4,29.9,N/A,,Partly Cloudy,310,2011-11-09 00:55:00
7:01 PM,48.2,39.2,71,30.09,10.0,NW,20.7,27.6,N/A,,Mostly Cloudy,310,2011-11-09 01:01:00
7:04 PM,48.2,39.2,71,30.10,10.0,NW,18.4,27.6,N/A,,Scattered Clouds,310,2011-11-09 01:04:00
7:10 PM,48.2,39.2,71,30.10,10.0,NW,21.9,27.6,N/A,,Mostly Cloudy,320,2011-11-09 01:10:00
7:46 PM,46.4,39.2,76,30.12,10.0,NW,19.6,25.3,N/A,,Scattered Clouds,320,2011-11-09 01:46:00
7:55 PM,46.4,38.7,74,30.12,10.0,NW,18.4,27.6,N/A,,Scattered Clouds,320,2011-11-09 01:55:00
8:55 PM,44.2,37.6,77,30.16,10.0,NW,18.4,-,N/A,,Clear,320,2011-11-09 02:55:00
9:55 PM,43.3,37.2,79,30.19,10.0,NW,24.2,29.9,N/A,,Partly Cloudy,320,2011-11-09 03:55:00
10:00 PM,42.8,37.4,81,30.19,10.0,NW,24.2,35.7,N/A,,Mostly Cloudy,320,2011-11-09 04:00:00
10:22 PM,42.8,37.4,81,30.20,10.0,NNW,19.6,28.8,N/A,,Mostly Cloudy,330,2011-11-09 04:22:00
10:55 PM,44.2,37.0,76,30.20,10.0,NNW,21.9,-,N/A,,Mostly Cloudy,340,2011-11-09 04:55:00
11:06 PM,44.6,37.4,76,30.20,10.0,North,21.9,26.5,N/A,,Partly Cloudy,350,2011-11-09 05:06:00
11:55 PM,43.2,36.1,76,30.23,10.0,NNW,19.6,-,N/A,,Clear,340,2011-11-09 05:55:00